CW8226 Weather Reports


time (UTC)temp
C
wind
direction
speed
KPH
gust
KPH
rain 1hr
cm
rain 24hr
cm
rain mn
cm
humidity
%
barometer
mb
20260901161144 18 184 3.2 3.2 0.00 0.00 0.00 65 1018.0
20260901160641 18 182 0.0 1.6 0.00 0.00 0.00 68 1018.1
20260901160137 18 198 3.2 3.2 0.00 0.00 0.00 67 1018.2
20260901155636 18 202 0.0 1.6 0.00 0.00 0.00 67 1018.2
20260901155131 18 197 1.6 1.6 0.00 0.00 0.00 69 1018.0
20260901154626 17 206 0.0 1.6 0.00 0.00 0.00 69 1017.7
20260901154121 17 190 0.0 0.0 0.00 0.00 0.00 70 1017.8
20260901153616 17 196 0.0 1.6 0.00 0.00 0.00 70 1017.8
20260901153115 17 199 1.6 3.2 0.00 0.00 0.00 70 1017.8
20260901152611 17 205 0.0 1.6 0.00 0.00 0.00 71 1017.7
20260901152109 17 229 1.6 1.6 0.00 0.00 0.00 71 1017.5
20260901151605 17 192 0.0 0.0 0.00 0.00 0.00 72 1017.6
20260901151104 17 203 1.6 1.6 0.00 0.00 0.00 72 1017.6
20260901150604 16 199 1.6 1.6 0.00 0.00 0.00 73 1017.8
20260901145601 16 192 0.0 1.6 0.00 0.00 0.00 74 1017.5
20260901145100 16 200 3.2 4.8 0.00 0.00 0.00 74 1017.5
20260901144556 16 202 0.0 1.6 0.00 0.00 0.00 75 1017.3
20260901144050 16 192 0.0 0.0 0.00 0.00 0.00 76 1017.4
20260901143546 16 200 0.0 0.0 0.00 0.00 0.00 76 1017.3
20260901143043 16 200 0.0 0.0 0.00 0.00 0.00 76 1017.3
20260901142538 16 194 0.0 1.6 0.00 0.00 0.00 77 1017.1
20260901142038 16 202 0.0 1.6 0.00 0.00 0.00 77 1017.0
20260901141538 15 197 0.0 0.0 0.00 0.00 0.00 77 1017.0
20260901141027 15 189 0.0 0.0 0.00 0.00 0.00 77 1017.0
20260901140526 15 186 0.0 1.6 0.00 0.00 0.00 77 1016.9
20260901140021 15 189 0.0 0.0 0.00 0.00 0.00 77 1016.8
20260901135520 15 189 0.0 0.0 0.00 0.00 0.00 77 1016.7
20260901135016 15 188 0.0 0.0 0.00 0.00 0.00 77 1016.6
20260901134512 15 193 0.0 3.2 0.00 0.00 0.00 77 1016.9
20260901134006 15 189 0.0 1.6 0.00 0.00 0.00 77 1016.6
20260901133505 15 197 0.0 1.6 0.00 0.00 0.00 77 1016.6
20260901133003 15 195 0.0 1.6 0.00 0.00 0.00 77 1016.5
20260901132457 15 189 0.0 0.0 0.00 0.00 0.00 77 1016.5
20260901131956 15 189 0.0 3.2 0.00 0.00 0.00 77 1016.6
20260901131451 15 191 1.6 3.2 0.00 0.00 0.00 77 1016.4
20260901130947 15 190 0.0 0.0 0.00 0.00 0.00 77 1016.5
20260901130441 15 189 0.0 0.0 0.00 0.00 0.00 77 1016.4
20260901125938 15 192 0.0 0.0 0.00 0.00 0.00 77 1016.2
20260901125432 15 170 1.6 3.2 0.00 0.00 0.00 77 1016.4
20260901124927 15 190 1.6 4.8 0.00 0.00 0.00 78 1016.3
20260901124422 15 190 1.6 4.8 0.00 0.00 0.00 78 1016.3
20260901123917 15 188 0.0 0.0 0.00 0.00 0.00 78 1016.4
20260901123412 15 187 0.0 1.6 0.00 0.00 0.00 78 1016.2
20260901122910 15 175 1.6 3.2 0.00 0.00 0.00 79 1016.0
20260901122405 15 188 0.0 1.6 0.00 0.00 0.00 79 1016.3
20260901121904 15 182 0.0 0.0 0.00 0.00 0.00 79 1016.1
20260901121359 15 182 1.6 1.6 0.00 0.00 0.00 79 1016.2
20260901120855 15 188 0.0 0.0 0.00 0.00 0.00 80 1016.3
20260901120349 15 189 0.0 0.0 0.00 0.00 0.00 80 1016.2
20260901115845 15 187 0.0 0.0 0.00 0.00 0.00 80 1016.4
20260901115344 15 189 0.0 0.0 0.00 0.00 0.00 80 1016.4
20260901114843 15 193 0.0 0.0 0.00 0.00 0.00 80 1016.2
20260901114338 15 192 1.6 1.6 0.00 0.00 0.00 80 1016.2
20260901113836 15 183 0.0 0.0 0.00 0.00 0.00 80 1016.3
20260901113335 15 188 0.0 0.0 0.00 0.00 0.00 80 1016.3
20260901112831 15 188 0.0 0.0 0.00 0.00 0.00 80 1016.3
20260901112330 15 188 1.6 1.6 0.00 0.00 0.00 80 1016.3
20260901111825 15 187 0.0 0.0 0.00 0.00 0.00 80 1016.4
20260901111323 15 187 0.0 0.0 0.00 0.00 0.00 80 1016.3
20260901110823 15 194 1.6 1.6 0.00 0.00 0.00 81 1016.6
20260901110318 15 188 0.0 1.6 0.00 0.00 0.00 83 1016.7
20260901105814 15 186 1.6 1.6 0.00 0.00 0.00 84 1016.6
20260901105308 15 192 0.0 0.0 0.00 0.00 0.00 85 1016.6
20260901104804 14 193 0.0 0.0 0.00 0.00 0.00 86 1016.8
20260901104300 14 192 0.0 0.0 0.00 0.00 0.00 86 1016.4
20260901103755 14 185 0.0 0.0 0.00 0.00 0.00 86 1016.2
20260901103249 14 185 0.0 0.0 0.00 0.00 0.00 87 1016.4
20260901102744 14 184 0.0 0.0 0.00 0.00 0.00 87 1016.3
20260901102239 14 187 0.0 0.0 0.00 0.00 0.00 89 1016.3
20260901101735 14 187 0.0 0.0 0.00 0.00 0.00 89 1016.4
20260901101234 14 187 0.0 0.0 0.00 0.00 0.00 89 1016.3
20260901100734 13 187 0.0 0.0 0.00 0.00 0.00 89 1016.2
20260901100229 13 187 0.0 0.0 0.00 0.00 0.00 90 1016.1
20260901095727 13 187 0.0 0.0 0.00 0.00 0.00 90 1016.0
20260901095224 13 187 0.0 0.0 0.00 0.00 0.00 90 1016.3
20260901094719 13 187 0.0 0.0 0.00 0.00 0.00 90 1016.2
20260901094214 13 187 0.0 0.0 0.00 0.00 0.00 90 1016.1
20260901093709 13 195 0.0 0.0 0.00 0.00 0.00 91 1016.1
20260901093208 13 195 0.0 0.0 0.00 0.00 0.00 91 1016.2
20260901092704 13 195 0.0 0.0 0.00 0.00 0.00 91 1016.2
20260901092200 13 196 0.0 0.0 0.00 0.00 0.00 91 1016.0
20260901091655 13 193 0.0 0.0 0.00 0.00 0.00 92 1016.3
20260901091150 13 192 0.0 0.0 0.00 0.00 0.00 93 1016.4
20260901090645 13 193 0.0 0.0 0.00 0.00 0.00 93 1016.2
20260901090140 13 196 0.0 0.0 0.00 0.00 0.00 93 1016.3
20260901085636 12 195 0.0 0.0 0.00 0.00 0.00 94 1016.3
20260901085132 12 195 0.0 0.0 0.00 0.00 0.00 94 1016.1
20260901084628 12 195 0.0 0.0 0.00 0.00 0.00 94 1016.4
20260901084124 12 195 0.0 0.0 0.00 0.00 0.00 94 1016.3
20260901083624 12 195 0.0 0.0 0.00 0.00 0.00 94 1016.2
20260901083122 12 196 0.0 0.0 0.00 0.00 0.00 94 1016.2
20260901082617 12 193 0.0 0.0 0.00 0.00 0.00 94 1016.3
20260901082112 12 195 0.0 0.0 0.00 0.00 0.00 95 1016.2
20260901081608 12 193 0.0 0.0 0.00 0.00 0.00 94 1016.2
20260901081108 12 203 0.0 0.0 0.00 0.00 0.00 94 1016.2
20260901080602 12 195 0.0 0.0 0.00 0.00 0.00 94 1016.3
20260901080101 12 195 0.0 1.6 0.00 0.00 0.00 94 1015.9
20260901075556 11 193 0.0 0.0 0.00 0.00 0.00 94 1016.3
20260901075056 11 189 0.0 0.0 0.00 0.00 0.00 94 1016.1
20260901074556 11 195 0.0 0.0 0.00 0.00 0.00 94 1016.4
20260901074051 12 187 0.0 0.0 0.00 0.00 0.00 94 1016.3
20260901073548 12 195 0.0 0.0 0.00 0.00 0.00 94 1016.4
20260901073048 12 195 0.0 0.0 0.00 0.00 0.00 94 1016.3
20260901072543 11 195 0.0 0.0 0.00 0.00 0.00 94 1016.3
20260901072037 12 197 0.0 0.0 0.00 0.00 0.00 94 1016.2
20260901071532 11 198 0.0 0.0 0.00 0.00 0.00 95 1016.3
20260901071030 11 198 0.0 0.0 0.00 0.00 0.00 94 1016.3
20260901070526 11 201 0.0 0.0 0.00 0.00 0.00 94 1016.6
20260901070021 11 201 0.0 0.0 0.00 0.00 0.00 94 1016.2
20260901065515 11 201 0.0 0.0 0.00 0.00 0.00 94 1016.4
20260901065010 11 194 0.0 0.0 0.00 0.00 0.00 94 1016.1
20260901064507 11 194 0.0 0.0 0.00 0.00 0.00 93 1016.3
20260901064004 11 194 0.0 0.0 0.00 0.00 0.00 93 1016.4
20260901063500 11 194 0.0 0.0 0.00 0.00 0.00 93 1016.2
20260901062955 11 193 0.0 0.0 0.00 0.00 0.00 92 1016.4
20260901062451 11 194 0.0 0.0 0.00 0.00 0.00 92 1016.2
20260901061947 12 194 0.0 0.0 0.00 0.00 0.00 92 1016.4
20260901061443 12 193 0.0 0.0 0.00 0.00 0.00 92 1016.2
20260901060942 12 194 0.0 0.0 0.00 0.00 0.00 92 1016.3
20260901060437 12 194 0.0 0.0 0.00 0.00 0.00 92 1016.4
20260901055932 12 196 0.0 0.0 0.00 0.00 0.00 92 1016.4
20260901055429 12 196 0.0 0.0 0.00 0.00 0.00 92 1016.6
20260901054925 12 196 0.0 0.0 0.00 0.00 0.00 91 1016.4
20260901054422 12 196 0.0 0.0 0.00 0.00 0.00 91 1016.4
20260901053918 12 196 0.0 0.0 0.00 0.00 0.00 91 1016.4
20260901053413 12 196 0.0 0.0 0.00 0.00 0.00 91 1016.6
20260901052908 12 196 0.0 0.0 0.00 0.00 0.00 90 1016.4
20260901052004 13 196 0.0 0.0 0.00 0.00 0.00 90 1016.4
20260901051458 13 196 0.0 0.0 0.00 0.00 0.00 90 1016.4
20260901050957 13 197 0.0 0.0 0.00 0.00 0.00 90 1016.3
20260901050452 13 196 0.0 0.0 0.00 0.00 0.00 90 1016.3
20260901045952 13 196 0.0 0.0 0.00 0.00 0.00 90 1016.2
20260901045447 13 196 0.0 0.0 0.00 0.00 0.00 89 1016.1
20260901044942 13 196 0.0 0.0 0.00 0.00 0.00 89 1016.1
20260901044438 13 196 0.0 0.0 0.00 0.00 0.00 88 1016.1
20260901043934 13 196 0.0 0.0 0.00 0.00 0.00 88 1016.0
20260901043430 13 196 0.0 0.0 0.00 0.00 0.00 88 1016.1
20260901042924 13 196 0.0 0.0 0.00 0.00 0.00 87 1016.0
20260901042424 13 196 0.0 0.0 0.00 0.00 0.00 86 1015.9
20260901041924 13 196 0.0 0.0 0.00 0.00 0.00 86 1016.1
20260901041420 13 197 0.0 0.0 0.00 0.00 0.00 85 1015.8
20260901040919 13 197 0.0 0.0 0.00 0.00 0.00 85 1016.0
20260901040414 14 197 0.0 0.0 0.00 0.00 0.00 84 1015.7
20260901035908 14 197 0.0 0.0 0.00 0.00 0.00 84 1015.8
20260901035407 14 198 0.0 0.0 0.00 0.00 0.00 83 1015.7
20260901034905 15 198 0.0 0.0 0.00 0.00 0.00 83 1015.9
20260901034400 15 198 0.0 0.0 0.00 0.00 0.00 83 1015.6
20260901033855 15 198 0.0 0.0 0.00 0.00 0.00 82 1015.6
20260901033354 15 198 0.0 0.0 0.00 0.00 0.00 81 1015.3
20260901032853 15 197 0.0 0.0 0.00 0.00 0.00 81 1015.3
20260901032352 15 197 0.0 0.0 0.00 0.00 0.00 80 1015.5
20260901031848 15 197 0.0 0.0 0.00 0.00 0.00 79 1015.5
20260901031343 16 197 0.0 0.0 0.00 0.00 0.00 79 1015.3
20260901030843 16 198 0.0 0.0 0.00 0.00 0.00 79 1015.3
20260901030339 16 204 1.6 1.6 0.00 0.00 0.00 78 1015.1
20260901025837 16 203 1.6 1.6 0.00 0.00 0.00 78 1015.2
20260901025332 16 203 0.0 0.0 0.00 0.00 0.00 77 1015.2
20260901024827 16 212 1.6 3.2 0.00 0.00 0.00 76 1015.0
20260901024327 17 195 0.0 0.0 0.00 0.00 0.00 75 1015.1
20260901023825 17 220 1.6 1.6 0.00 0.00 0.00 75 1015.1
20260901023320 17 202 1.6 3.2 0.00 0.00 0.00 74 1015.0
20260901022815 17 187 0.0 3.2 0.00 0.00 0.00 74 1015.2
20260901022311 17 194 0.0 0.0 0.00 0.00 0.00 73 1015.0
20260901021806 17 186 0.0 4.8 0.00 0.00 0.00 72 1014.9
20260901021302 18 193 0.0 3.2 0.00 0.00 0.00 71 1015.1
20260901020756 18 251 4.8 4.8 0.00 0.00 0.00 69 1014.9
20260901020251 19 279 6.4 8.0 0.00 0.00 0.00 68 1015.1
20260901015746 19 162 4.8 9.7 0.00 0.00 0.00 68 1015.1
20260901015242 19 241 1.6 3.2 0.00 0.00 0.00 68 1014.8
20260901014736 19 195 3.2 4.8 0.00 0.00 0.00 69 1014.8
20260901014232 18 189 0.0 3.2 0.00 0.00 0.00 70 1014.8
20260901013728 19 185 1.6 4.8 0.00 0.00 0.00 69 1014.7
20260901013223 20 239 4.8 8.0 0.00 0.00 0.00 67 1014.8
20260901012718 20 219 1.6 9.7 0.00 0.00 0.00 67 1014.9
20260901012218 20 196 3.2 4.8 0.00 0.00 0.00 66 1015.1
20260901011714 20 253 3.2 8.0 0.00 0.00 0.00 67 1014.8
20260901011214 21 237 4.8 9.7 0.00 0.00 0.00 65 1015.0
20260901010708 21 194 0.0 3.2 0.00 0.00 0.00 66 1014.9
20260901010203 21 287 1.6 4.8 0.00 0.00 0.00 65 1015.0
20260901005702 21 227 3.2 4.8 0.00 0.00 0.00 64 1014.9
20260901005158 21 256 3.2 4.8 0.00 0.00 0.00 64 1014.7
20260901004657 20 204 1.6 9.7 0.00 0.00 0.00 67 1014.6
20260901004151 20 249 3.2 11.3 0.00 0.00 0.00 66 1014.8
20260901003646 21 240 3.2 8.0 0.00 0.00 0.00 66 1014.6
20260901003145 20 316 6.4 11.3 0.00 0.00 0.00 67 1014.7
20260901002640 20 166 3.2 9.7 0.00 0.00 0.00 65 1014.7
20260901002134 20 200 1.6 11.3 0.00 0.00 0.00 66 1014.7
20260901001630 20 267 8.0 12.9 0.00 0.00 0.00 64 1014.6
20260901001125 21 267 8.0 11.3 0.00 0.00 0.00 62 1014.6
20260901000620 21 285 6.4 12.9 0.00 0.00 0.00 62 1014.6
20260901000115 21 241 1.6 11.3 0.00 0.00 0.00 63 1014.6
20260831235609 21 196 3.2 4.8 0.00 0.00 0.00 63 1014.6
20260831235105 21 332 3.2 8.0 0.00 0.00 0.00 64 1014.9
20260831234604 21 321 9.7 11.3 0.00 0.00 0.00 63 1014.7
20260831234100 20 215 1.6 8.0 0.00 0.00 0.00 65 1014.6
20260831233555 21 174 6.4 11.3 0.00 0.00 0.00 64 1014.8
20260831233050 21 245 4.8 16.1 0.00 0.00 0.00 64 1015.0
20260831232546 21 229 8.0 14.5 0.00 0.00 0.00 62 1014.9
20260831232041 21 298 3.2 12.9 0.00 0.00 0.00 64 1015.1
20260831231537 21 139 3.2 12.9 0.00 0.00 0.00 64 1015.0
20260831231033 21 199 3.2 11.3 0.00 0.00 0.00 64 1014.7
20260831230528 21 243 8.0 12.9 0.00 0.00 0.00 63 1015.0
20260831230023 21 161 8.0 17.7 0.00 0.00 0.00 64 1014.9
20260831225518 21 237 4.8 17.7 0.00 0.00 0.00 64 1015.0
20260831225018 21 274 4.8 16.1 0.00 0.00 0.00 65 1014.9
20260831224513 22 284 11.3 17.7 0.00 0.00 0.00 64 1015.3
20260831224009 22 262 4.8 8.0 0.00 0.00 0.00 62 1015.2
20260831223504 21 305 1.6 11.3 0.00 0.00 0.00 64 1015.1
20260831223000 22 180 3.2 8.0 0.00 0.00 0.00 61 1015.0
20260831222456 22 208 6.4 11.3 0.00 0.00 0.00 61 1015.3
20260831221955 22 231 1.6 9.7 0.00 0.00 0.00 64 1015.1
20260831221451 22 261 6.4 11.3 0.00 0.00 0.00 63 1015.4
20260831220946 21 136 1.6 12.9 0.00 0.00 0.00 64 1015.4
20260831220442 21 304 6.4 11.3 0.00 0.00 0.00 65 1015.8
20260831215937 21 180 4.8 8.0 0.00 0.00 0.00 66 1015.7
20260831215432 21 197 4.8 8.0 0.00 0.00 0.00 64 1015.7
20260831214928 20 248 3.2 12.9 0.00 0.00 0.00 68 1015.7
20260831214426 21 297 8.0 14.5 0.00 0.00 0.00 66 1015.8
20260831213921 22 284 4.8 11.3 0.00 0.00 0.00 64 1015.7
20260831213418 22 193 1.6 9.7 0.00 0.00 0.00 63 1015.8
20260831212918 21 247 4.8 9.7 0.00 0.00 0.00 66 1015.8
20260831212414 21 260 3.2 8.0 0.00 0.00 0.00 65 1015.9
20260831211913 21 330 4.8 4.8 0.00 0.00 0.00 66 1016.1
20260831211408 21 333 8.0 11.3 0.00 0.00 0.00 65 1016.1
20260831210902 21 233 3.2 4.8 0.00 0.00 0.00 65 1016.2
20260831210358 21 245 3.2 8.0 0.00 0.00 0.00 66 1016.0
20260831205853 21 88 4.8 8.0 0.00 0.00 0.00 67 1016.1
20260831205349 20 208 0.0 3.2 0.00 0.00 0.00 69 1016.2
20260831204843 21 241 4.8 8.0 0.00 0.00 0.00 68 1016.3
20260831204343 20 175 1.6 4.8 0.00 0.00 0.00 68 1016.2
20260831203842 20 185 0.0 14.5 0.00 0.00 0.00 69 1016.0
20260831203336 20 286 6.4 8.0 0.00 0.00 0.00 68 1016.3
20260831202834 20 238 3.2 8.0 0.00 0.00 0.00 68 1016.2
20260831202325 21 255 3.2 8.0 0.00 0.00 0.00 68 1016.4
20260831201824 20 178 3.2 4.8 0.00 0.00 0.00 71 1016.6
20260831201323 20 203 1.6 9.7 0.00 0.00 0.00 71 1016.3
20260831200819 20 210 1.6 3.2 0.00 0.00 0.00 69 1016.3
20260831200314 20 246 3.2 8.0 0.00 0.00 0.00 69 1016.3
20260831195809 20 326 8.0 8.0 0.00 0.00 0.00 68 1016.2
20260831195306 20 163 3.2 8.0 0.00 0.00 0.00 70 1016.4
20260831194754 20 204 1.6 4.8 0.00 0.00 0.00 71 1016.4
20260831194249 19 254 4.8 11.3 0.00 0.00 0.00 72 1016.6
20260831193743 20 298 4.8 8.0 0.00 0.00 0.00 72 1016.6
20260831193239 20 187 1.6 4.8 0.00 0.00 0.00 72 1016.6
20260831192733 18 223 4.8 4.8 0.00 0.00 0.00 74 1016.5
20260831192228 19 230 3.2 9.7 0.00 0.00 0.00 74 1016.7
20260831191725 19 279 3.2 4.8 0.00 0.00 0.00 74 1016.7
20260831191221 19 247 3.2 3.2 0.00 0.00 0.00 73 1016.8
20260831190715 19 169 1.6 8.0 0.00 0.00 0.00 74 1016.7
20260831190215 19 174 1.6 4.8 0.00 0.00 0.00 75 1016.7
20260831185710 18 186 1.6 3.2 0.00 0.00 0.00 75 1016.7
20260831185206 20 179 3.2 3.2 0.00 0.00 0.00 72 1016.8
20260831184705 20 183 1.6 3.2 0.00 0.00 0.00 73 1016.8
20260831184201 19 235 0.0 1.6 0.00 0.00 0.00 73 1017.0
20260831183700 19 255 1.6 3.2 0.00 0.00 0.00 72 1016.9
20260831183200 19 205 1.6 3.2 0.00 0.00 0.00 73 1016.9
20260831182659 18 82 1.6 3.2 0.00 0.00 0.00 76 1016.8
20260831182155 18 82 1.6 3.2 0.00 0.00 0.00 76 1016.8
20260831181649 18 121 1.6 4.8 0.00 0.00 0.00 76 1016.9
20260831181149 18 198 3.2 8.0 0.00 0.00 0.00 77 1016.9
20260831180645 18 261 3.2 3.2 0.00 0.00 0.00 75 1016.9
20260831180139 18 227 1.6 4.8 0.00 0.00 0.00 75 1016.9
20260831175634 18 230 1.6 4.8 0.00 0.00 0.00 76 1016.8
20260831175131 17 259 3.2 8.0 0.00 0.00 0.00 76 1017.0
20260831174631 17 192 1.6 3.2 0.00 0.00 0.00 77 1016.9
20260831174126 17 190 1.6 3.2 0.00 0.00 0.00 77 1017.0
20260831173625 17 201 1.6 1.6 0.00 0.00 0.00 77 1017.1
20260831173121 17 172 0.0 1.6 0.00 0.00 0.00 78 1016.8
20260831172620 17 255 3.2 3.2 0.00 0.00 0.00 77 1017.0
20260831172114 17 193 0.0 1.6 0.00 0.00 0.00 78 1017.0
20260831171610 17 218 0.0 4.8 0.00 0.00 0.00 78 1017.1
20260831171107 17 296 3.2 4.8 0.00 0.00 0.00 78 1017.0
20260831170602 17 221 3.2 4.8 0.00 0.00 0.00 77 1016.9
20260831170100 17 214 0.0 0.0 0.00 0.00 0.00 77 1016.9
20260831165555 17 227 1.6 1.6 0.00 0.00 0.00 77 1016.7
20260831165052 17 228 0.0 1.6 0.00 0.00 0.00 78 1016.7
20260831164548 16 233 0.0 1.6 0.00 0.00 0.00 79 1016.5
20260831164043 16 220 1.6 4.8 0.00 0.00 0.00 79 1016.6
20260831163537 16 187 0.0 1.6 0.00 0.00 0.00 80 1016.5
20260831163033 16 252 3.2 4.8 0.00 0.00 0.00 79 1016.8
20260831162532 16 190 1.6 1.6 0.00 0.00 0.00 79 1016.4
20260831162030 16 195 1.6 3.2 0.00 0.00 0.00 79 1016.4